When you browse on this site, cookies collect data to enhance your experience and personalize the content and advertising you see.
Visit our Privacy Policy to learn more. By continuing to use the site, you agree to this use of cookies and data.
  • In Latvia
  • List of Countries
  • For 7 days
  • Water Temperature
  • Satellite Maps
  • Weather Map
  • Weather Widgets
  • user-avatar
    Login

    Hourly Weather Shofirkon

    Today, 21 November, Wednesday

    Time Temperature Precipitation Wind Pressure Humidity
    00:00 +7°C° 0 mm 2 mps 746 mmHg 64%
    01:00 +5°C° 0 mm 3 mps 746 mmHg 65%
    02:00 +5°C° 0 mm 3 mps 745 mmHg 66%
    03:00 +5°C° 0 mm 3 mps 744 mmHg 67%
    04:00 +4°C° 0 mm 3 mps 744 mmHg 68%
    05:00 +4°C° 0 mm 3 mps 743 mmHg 67%
    06:00 +4°C° 0 mm 3 mps 743 mmHg 67%
    07:00 +4°C° 0 mm 3 mps 742 mmHg 66%
    08:00 +7°C° 0 mm 3 mps 742 mmHg 59%
    09:00 +9°C° 0 mm 3 mps 741 mmHg 51%
    10:00 +11°C° 0 mm 3 mps 741 mmHg 44%
    11:00 +12°C° 0 mm 3 mps 740 mmHg 41%
    12:00 +12°C° 0 mm 3 mps 739 mmHg 37%
    13:00 +14°C° 0 mm 2 mps 739 mmHg 34%
    14:00 +14°C° 0.4 mm 2 mps 738 mmHg 41%
    15:00 +13°C° 0.4 mm 2 mps 738 mmHg 47%
    16:00 +12°C° 0.4 mm 1 mps 737 mmHg 54%
    17:00 +10°C° 0.9 mm 2 mps 737 mmHg 60%
    18:00 +10°C° 0.9 mm 2 mps 737 mmHg 67%
    19:00 +9°C° 0.9 mm 2 mps 737 mmHg 73%
    20:00 +9°C° 0.4 mm 2 mps 737 mmHg 73%
    21:00 +9°C° 0.4 mm 3 mps 737 mmHg 74%
    22:00 +10°C° 0.4 mm 3 mps 737 mmHg 74%
    23:00 +10°C° 0 mm 3 mps 738 mmHg 73%

    Tomorrow, 22 November, Thursday

    Time Temperature Precipitation Wind Pressure Humidity
    00:00 +8°C° 0 mm 4 mps 738 mmHg 72%
    01:00 +8°C° 0 mm 4 mps 738 mmHg 72%
    02:00 +8°C° 0 mm 5 mps 738 mmHg 73%
    03:00 +8°C° 0 mm 5 mps 738 mmHg 74%
    04:00 +8°C° 0 mm 5 mps 739 mmHg 75%
    05:00 +8°C° 0 mm 5 mps 739 mmHg 76%
    06:00 +7°C° 0 mm 5 mps 740 mmHg 76%
    07:00 +7°C° 0 mm 5 mps 740 mmHg 76%
    08:00 +8°C° 0 mm 5 mps 741 mmHg 72%
    09:00 +9°C° 0 mm 6 mps 741 mmHg 67%
    10:00 +10°C° 0 mm 7 mps 742 mmHg 63%
    11:00 +11°C° 0 mm 7 mps 742 mmHg 60%
    12:00 +13°C° 0 mm 6 mps 742 mmHg 57%
    13:00 +13°C° 0 mm 6 mps 742 mmHg 55%
    14:00 +13°C° 0 mm 6 mps 742 mmHg 54%
    15:00 +13°C° 0 mm 5 mps 741 mmHg 53%
    16:00 +13°C° 0 mm 4 mps 741 mmHg 52%
    17:00 +13°C° 0 mm 3 mps 742 mmHg 55%
    18:00 +12°C° 0 mm 3 mps 742 mmHg 57%
    19:00 +13°C° 0 mm 2 mps 742 mmHg 59%
    20:00 +12°C° 0 mm 2 mps 742 mmHg 61%
    21:00 +12°C° 0 mm 2 mps 742 mmHg 62%
    22:00 +12°C° 0 mm 2 mps 742 mmHg 64%
    23:00 +12°C° 0 mm 2 mps 742 mmHg 64%

    Day after tomorrow, 23 November, Friday

    Time Temperature Precipitation Wind Pressure Humidity
    00:00 +12°C° 0 mm 2 mps 741 mmHg 64%
    01:00 +12°C° 0 mm 2 mps 741 mmHg 64%
    02:00 +12°C° 0 mm 2 mps 741 mmHg 64%
    03:00 +11°C° 0 mm 3 mps 740 mmHg 64%
    04:00 +11°C° 0 mm 3 mps 740 mmHg 64%
    05:00 +11°C° 0 mm 3 mps 740 mmHg 63%
    06:00 +11°C° 0 mm 3 mps 740 mmHg 62%
    07:00 +11°C° 0 mm 3 mps 740 mmHg 61%
    08:00 +13°C° 0 mm 5 mps 740 mmHg 53%
    09:00 +15°C° 0 mm 6 mps 740 mmHg 46%
    10:00 +17°C° 0 mm 8 mps 740 mmHg 38%
    11:00 +18°C° 0 mm 8 mps 740 mmHg 37%
    12:00 +18°C° 0 mm 8 mps 739 mmHg 35%
    13:00 +19°C° 0 mm 9 mps 739 mmHg 34%
    14:00 +20°C° 0 mm 7 mps 739 mmHg 36%
    15:00 +19°C° 0 mm 5 mps 739 mmHg 38%
    16:00 +19°C° 0 mm 3 mps 739 mmHg 40%
    17:00 +18°C° 0 mm 3 mps 739 mmHg 43%
    18:00 +17°C° 0 mm 3 mps 739 mmHg 45%
    19:00 +16°C° 0 mm 2 mps 740 mmHg 48%
    20:00 +16°C° 0 mm 2 mps 740 mmHg 50%
    21:00 +15°C° 0 mm 2 mps 740 mmHg 53%
    22:00 +15°C° 0 mm 2 mps 740 mmHg 55%
    23:00 +15°C° 0 mm 2 mps 740 mmHg 57%

    24 November, Saturday

    Time Temperature Precipitation Wind Pressure Humidity
    00:00 +14°C° 0 mm 1 mps 740 mmHg 58%
    01:00 +14°C° 0 mm 1 mps 740 mmHg 60%
    02:00 +14°C° 0 mm 1 mps 740 mmHg 58%
    03:00 +14°C° 0 mm 2 mps 740 mmHg 57%
    04:00 +14°C° 0 mm 2 mps 740 mmHg 55%
    05:00 +13°C° 0.1 mm 3 mps 741 mmHg 59%
    06:00 +12°C° 0.1 mm 4 mps 742 mmHg 63%
    07:00 +12°C° 0.1 mm 4 mps 742 mmHg 67%
    08:00 +10°C° 0.3 mm 5 mps 744 mmHg 69%
    09:00 +10°C° 0.3 mm 6 mps 745 mmHg 70%
    10:00 +9°C° 0.3 mm 6 mps 746 mmHg 71%
    11:00 +9°C° 0.2 mm 7 mps 746 mmHg 66%
    12:00 +8°C° 0.2 mm 7 mps 747 mmHg 61%
    13:00 +8°C° 0.2 mm 7 mps 748 mmHg 56%
    14:00 +6°C° 0 mm 7 mps 749 mmHg 51%
    15:00 +5°C° 0 mm 6 mps 749 mmHg 46%
    16:00 +5°C° 0 mm 6 mps 750 mmHg 41%
    17:00 +4°C° 0 mm 6 mps 751 mmHg 41%
    18:00 +3°C° 0 mm 6 mps 752 mmHg 41%
    19:00 +3°C° 0 mm 6 mps 753 mmHg 41%
    20:00 +2°C° 0 mm 6 mps 754 mmHg 40%
    21:00 +2°C° 0 mm 7 mps 754 mmHg 39%
    22:00 +2°C° 0 mm 7 mps 754 mmHg 39%
    23:00 0°C° 0 mm 7 mps 754 mmHg 39%

    25 November, Sunday

    Time Temperature Precipitation Wind Pressure Humidity
    00:00 0°C° 0 mm 7 mps 754 mmHg 40%
    01:00 -1°C° 0 mm 7 mps 754 mmHg 41%
    02:00 -1°C° 0 mm 7 mps 754 mmHg 41%
    03:00 -2°C° 0 mm 7 mps 754 mmHg 42%
    04:00 -2°C° 0 mm 7 mps 754 mmHg 43%
    05:00 -2°C° 0 mm 7 mps 754 mmHg 44%
    06:00 -2°C° 0 mm 7 mps 753 mmHg 45%
    07:00 -2°C° 0 mm 7 mps 753 mmHg 46%
    08:00 -1°C° 0 mm 7 mps 753 mmHg 43%
    09:00 0°C° 0 mm 7 mps 753 mmHg 40%
    10:00 +3°C° 0 mm 6 mps 752 mmHg 37%
    11:00 +4°C° 0 mm 6 mps 752 mmHg 36%
    12:00 +5°C° 0 mm 6 mps 751 mmHg 34%
    13:00 +7°C° 0 mm 6 mps 750 mmHg 33%
    14:00 +7°C° 0 mm 6 mps 749 mmHg 34%
    15:00 +7°C° 0 mm 6 mps 749 mmHg 35%
    16:00 +7°C° 0 mm 6 mps 748 mmHg 36%
    17:00 +5°C° 0 mm 6 mps 748 mmHg 39%
    18:00 +5°C° 0 mm 5 mps 747 mmHg 41%
    19:00 +3°C° 0 mm 5 mps 747 mmHg 43%
    20:00 +3°C° 0 mm 5 mps 747 mmHg 44%
    21:00 +3°C° 0 mm 5 mps 746 mmHg 45%
    22:00 +4°C° 0 mm 4 mps 745 mmHg 45%
    23:00 +4°C° 0 mm 4 mps 745 mmHg 45%

    26 November, Monday

    Time Temperature Precipitation Wind Pressure Humidity
    00:00 +4°C° 0 mm 4 mps 744 mmHg 45%
    01:00 +4°C° 0 mm 4 mps 744 mmHg 45%
    02:00 +4°C° 0 mm 4 mps 743 mmHg 44%
    03:00 +4°C° 0 mm 4 mps 743 mmHg 43%
    04:00 +5°C° 0 mm 4 mps 742 mmHg 43%
    05:00 +5°C° 0 mm 4 mps 742 mmHg 42%
    06:00 +5°C° 0 mm 4 mps 742 mmHg 42%
    07:00 +7°C° 0 mm 3 mps 741 mmHg 42%
    08:00 +7°C° 0 mm 4 mps 741 mmHg 41%
    09:00 +7°C° 0 mm 4 mps 741 mmHg 40%
    10:00 +8°C° 0 mm 4 mps 741 mmHg 40%
    11:00 +10°C° 0.1 mm 4 mps 740 mmHg 42%
    12:00 +10°C° 0.1 mm 4 mps 740 mmHg 45%
    13:00 +11°C° 0.1 mm 4 mps 739 mmHg 47%
    14:00 +10°C° 0.3 mm 4 mps 739 mmHg 53%
    15:00 +10°C° 0.3 mm 4 mps 739 mmHg 59%
    16:00 +10°C° 0.3 mm 4 mps 739 mmHg 65%
    17:00 +10°C° 0.4 mm 4 mps 739 mmHg 69%
    18:00 +10°C° 0.4 mm 4 mps 739 mmHg 74%
    19:00 +10°C° 0.4 mm 3 mps 740 mmHg 78%
    20:00 +9°C° 0.1 mm 3 mps 740 mmHg 79%
    21:00 +9°C° 0.1 mm 2 mps 740 mmHg 81%
    22:00 +9°C° 0.1 mm 2 mps 740 mmHg 82%
    23:00 +9°C° 0.1 mm 2 mps 740 mmHg 84%
    Show more